Zurück zum Katalog

THOR ABLESTAR DEB

AktivPO
NORAD 956·DEBRIS·🇺🇸 United States

Gestartet Dec 13, 1964 von Vandenberg Space Force Base

Loading…

Nächste Überflüge (nächste 24 Stunden)

TLE

AktuellSource: Space-Track

Epoche: Sep 14, 2026, 05:46 UTC

1 00956U 64083B   26257.24057318  .00000229  00000-0  25934-3 0  9992
2 00956  89.9316 168.3312 0024234 113.0071  40.6281 13.67593361 68290

Verfolge THOR ABLESTAR DEB in Echtzeit mit AllMySat

Download on the App Store